Location: Wolf Lake
(46.8518°N, 80.6381°W)
Time: 10:10:58
(UTC-04:00)

ISS - Pass Details

Date: 21 March 2026
Orbit: 416 x 425 km, 51.6° (Epoch: 19 April)

Event Time Altitude Azimuth Distance (km) Brightness Sun altitude
Rises 21:05:16 0° 292° (WNW) 2,388 2.0 -15.7°
Reaches altitude 10° 21:07:27 10° 299° (WNW) 1,520 0.4 -16.0°
Maximum altitude 21:10:44 42° 12° (NNE) 616 -2.9 -16.5°
Enters shadow 21:11:48 31° 59° (ENE) 764 -2.8 -16.7°
